Change the Weather History Date:

Wednesday, March 12, 2014

  Actual Average Record
Temperature  
Mean Temperature 28 °F 30 °F  
Max Temperature 41 °F 40 °F 66 °F (2012)
Min Temperature 15 °F 20 °F -4 °F (1948)
Degree Days  
Heating Degree Days 37 35  
Month to date heating degree days 516 436  
Since 1 July heating degree days 6068 5816  
Cooling Degree Days 0 0  
Month to date cooling degree days 0 0  
Year to date cooling degree days 0 0  
Moisture  
Dew Point 29 °F    
Average Humidity 78    
Maximum Humidity 92    
Minimum Humidity 64    
Precipitation  
Precipitation 0.44 in 0.08 in 0.96 in (2013)
Month to date precipitation 0.44 1.00  
Year to date precipitation 6.82 6.60  
Sea Level Pressure  
Sea Level Pressure 29.24 in    
Wind  
Wind Speed 6 mph (NNW)    
Max Wind Speed 22 mph    
Max Gust Speed 31 mph    
Visibility 6 miles    
Events Fog , Rain , Snow    
T = Trace of Precipitation, MM = Missing Value Source: NWS Daily Summary

Daily Weather History Graph

Daily Weather History Graph

Search for Another Location

Airport or City:

Trip Planner

Search our weather history database for the weather conditions in past years. The results will help you decide how hot, cold, wet, or windy it might be!

Date:

Astronomy

Mar. 12, 2014 Rise Set
Actual Time 7:10 AM EDT 6:56 PM EDT
Civil Twilight 6:42 AM EDT 7:24 PM EDT
Nautical Twilight 6:09 AM EDT 7:56 PM EDT
Astronomical Twilight 5:36 AM EDT 8:29 PM EDT
Moon 3:20 PM EDT (3/12) 4:44 AM EDT (3/12)
Length of Visible Light 12h 41m
Length of Day
11h 45m
Waxing Gibbous, 85% of the Moon is Illuminated
Mar 12
Waxing Gibbous
Mar 16
Full
Mar 23
Last Quarter
Mar 30
New
Apr 7
First Quarter

Hourly Weather History & Observations

Time (EDT) Temp. Windchill Dew Point Humidity Pressure Visibility Wind Dir Wind Speed Gust Speed Precip Events Conditions
12:54 AM 37.9 °F 35.5 °F 28.0 °F 68% 29.68 in 10.0 mi SSW 3.5 mph - N/A   Overcast
1:54 AM 37.0 °F 33.3 °F 27.0 °F 67% 29.66 in 10.0 mi SE 4.6 mph - N/A   Overcast
2:54 AM 36.0 °F - 28.0 °F 73% 29.65 in 10.0 mi Calm Calm - N/A   Overcast
3:54 AM 36.0 °F - 28.9 °F 76% 29.63 in 10.0 mi Calm Calm - 0.00 in Rain Light Rain
4:54 AM 35.1 °F - 30.0 °F 82% 29.62 in 10.0 mi Calm Calm - 0.00 in   Overcast
5:54 AM 35.1 °F - 30.9 °F 85% 29.62 in 10.0 mi Calm Calm - 0.00 in   Overcast
6:54 AM 35.1 °F 32.2 °F 30.9 °F 85% 29.62 in 10.0 mi ESE 3.5 mph - N/A   Overcast
7:54 AM 35.1 °F - 32.0 °F 89% 29.59 in 8.0 mi Calm Calm - N/A   Overcast
8:54 AM 36.0 °F - 33.1 °F 89% 29.57 in 10.0 mi Calm Calm - N/A   Overcast
9:54 AM 39.0 °F 35.7 °F 33.1 °F 79% 29.54 in 10.0 mi NE 4.6 mph - 0.00 in   Overcast
10:54 AM 41.0 °F 36.4 °F 30.9 °F 67% 29.48 in 10.0 mi ENE 6.9 mph - 0.00 in Rain Light Rain
11:54 AM 39.0 °F 34.0 °F 30.9 °F 73% 29.44 in 7.0 mi ENE 6.9 mph - 0.01 in Rain Light Rain
12:17 PM 39.0 °F 32.3 °F 30.9 °F 73% 29.42 in 10.0 mi NE 10.4 mph - 0.00 in   Overcast
12:54 PM 37.9 °F 31.5 °F 32.0 °F 79% 29.39 in 9.0 mi ENE 9.2 mph - 0.00 in Rain Light Rain
1:54 PM 37.9 °F 32.1 °F 34.0 °F 86% 29.34 in 8.0 mi ENE 8.1 mph - 0.01 in Rain Light Rain
2:54 PM 37.9 °F 32.7 °F 34.0 °F 86% 29.26 in 6.0 mi ENE 6.9 mph - 0.00 in Rain Light Rain
3:02 PM 37.9 °F 33.5 °F 34.0 °F 86% 29.25 in 6.0 mi ENE 5.8 mph - 0.00 in Rain Light Rain
3:54 PM 37.0 °F 34.5 °F 35.1 °F 93% 29.20 in 3.0 mi Variable 3.5 mph - 0.04 in Rain Light Rain
4:24 PM 37.0 °F 31.6 °F 35.1 °F 93% 29.18 in 2.5 mi NE 6.9 mph - 0.03 in Rain Light Rain
4:54 PM 37.0 °F 33.3 °F 35.1 °F 93% 29.13 in 1.8 mi East 4.6 mph - 0.08 in Rain Rain
5:18 PM 37.0 °F 32.4 °F 35.1 °F 93% 29.10 in 1.2 mi East 5.8 mph - 0.08 in Rain Rain
5:45 PM 37.0 °F 34.5 °F 35.1 °F 93% 29.09 in 2.0 mi North 3.5 mph - 0.11 in Rain Light Rain
5:51 PM 37.4 °F 33.8 °F 35.6 °F 93% 29.08 in 1.8 mi NE 4.6 mph - 0.12 in Rain Light Rain
5:54 PM 37.0 °F - 36.0 °F 96% 29.10 in 1.5 mi Calm Calm - 0.12 in Rain Light Rain
6:32 PM 37.0 °F 33.3 °F 36.0 °F 96% 29.06 in 3.0 mi NNE 4.6 mph - 0.04 in Rain Light Rain
6:54 PM 37.0 °F - 36.0 °F 96% 29.06 in 4.0 mi Calm Calm - 0.05 in Rain Light Rain
7:05 PM 37.0 °F 34.5 °F 35.1 °F 93% 29.04 in 3.0 mi NE 3.5 mph - 0.01 in Rain Light Rain
7:14 PM 37.0 °F 33.3 °F 35.1 °F 93% 29.05 in 2.5 mi NW 4.6 mph - 0.02 in Rain Light Rain
7:24 PM 36.0 °F 29.0 °F 35.1 °F 97% 29.06 in 2.5 mi WNW 9.2 mph - 0.03 in Rain Light Rain
7:31 PM 36.0 °F 29.0 °F 35.1 °F 97% 29.06 in 3.0 mi West 9.2 mph - 0.03 in Rain Light Rain
7:40 PM 32.0 °F 24.2 °F 32.0 °F 100% 29.07 in 2.0 mi WSW 9.2 mph - 0.06 in Rain Rain
7:52 PM 30.2 °F 21.3 °F 28.4 °F 93% 29.07 in 5.0 mi WSW 10.4 mph - 0.07 in   Overcast
7:54 PM 30.9 °F 23.5 °F 28.9 °F 92% 29.09 in 5.0 mi SW 8.1 mph - 0.07 in   Overcast
8:03 PM 30.9 °F 24.3 °F 30.0 °F 96% 29.06 in 4.0 mi SW 6.9 mph - 0.01 in   Overcast
8:34 PM 32.0 °F 27.5 °F 30.9 °F 96% 29.05 in 10.0 mi SW 4.6 mph - 0.01 in   Overcast
8:47 PM 33.1 °F - 30.9 °F 92% 29.04 in 10.0 mi Calm Calm - 0.01 in   Overcast
8:54 PM 33.1 °F 23.0 °F 30.9 °F 92% 29.08 in 10.0 mi West 15.0 mph - 0.01 in Rain Light Rain
9:16 PM 30.0 °F 25.2 °F 28.9 °F 96% 29.06 in 10.0 mi West 4.6 mph - 0.00 in   Overcast
9:45 PM 28.0 °F 18.1 °F 26.1 °F 92% 29.07 in 5.0 mi WNW 11.5 mph 21.9 mph 0.01 in Rain Light Freezing Rain
9:54 PM 27.0 °F 16.7 °F 25.0 °F 92% 29.10 in 5.0 mi WNW 11.5 mph - 0.01 in Rain Light Freezing Rain
10:21 PM 25.0 °F 10.6 °F 21.9 °F 88% 29.09 in 2.5 mi WNW 20.7 mph 31.1 mph 0.01 in Rain Light Freezing Rain
10:28 PM 23.0 °F 11.1 °F 19.9 °F 88% 29.09 in 2.5 mi NW 12.7 mph 31.1 mph 0.01 in   Overcast
10:54 PM 21.0 °F 7.1 °F 17.1 °F 85% 29.14 in 2.5 mi WNW 16.1 mph 24.2 mph 0.02 in   Overcast
11:11 PM 19.0 °F 4.5 °F 16.0 °F 88% 29.15 in 1.0 mi WNW 16.1 mph 25.3 mph 0.01 in Snow Light Snow
11:37 PM 18.0 °F 4.2 °F 14.0 °F 84% 29.15 in 1.0 mi NW 13.8 mph 24.2 mph 0.02 in Snow Light Snow
11:44 PM 17.1 °F 2.0 °F 14.0 °F 88% 29.14 in 0.8 mi WNW 16.1 mph 24.2 mph 0.02 in Snow Light Snow
11:51 PM 17.6 °F 3.7 °F 12.2 °F 79% 29.13 in 0.5 mi NNW 13.8 mph 24.2 mph 0.02 in Fog , Snow Light Snow
11:54 PM 17.1 °F 3.0 °F 12.9 °F 84% 29.16 in 0.8 mi NNW 13.8 mph 20.7 mph 0.02 in Snow Light Snow